TimeEDT,TemperatureF,Dew PointF,Humidity,Sea Level PressureIn,VisibilityMPH,Wind Direction,Wind SpeedMPH,Gust SpeedMPH,PrecipitationIn,Events,Conditions,WindDirDegrees,DateUTC
12:51 AM,71.1,54.0,55,30.11,10.0,West,8.1,-,N/A,,Clear,270,2013-07-30 04:51:00
1:51 AM,69.1,54.0,58,30.11,10.0,West,6.9,-,N/A,,Clear,280,2013-07-30 05:51:00
2:51 AM,69.1,54.0,58,30.10,10.0,WNW,6.9,-,N/A,,Clear,290,2013-07-30 06:51:00
3:51 AM,69.1,53.1,57,30.11,10.0,Calm,Calm,-,N/A,,Clear,0,2013-07-30 07:51:00
4:51 AM,66.0,54.0,65,30.13,10.0,North,3.5,-,N/A,,Clear,10,2013-07-30 08:51:00
5:51 AM,66.0,55.0,68,30.15,10.0,WNW,3.5,-,N/A,,Clear,290,2013-07-30 09:51:00
6:51 AM,66.9,55.9,68,30.16,10.0,West,5.8,-,N/A,,Clear,270,2013-07-30 10:51:00
7:51 AM,71.1,55.0,57,30.17,10.0,NW,9.2,-,N/A,,Scattered Clouds,310,2013-07-30 11:51:00
8:51 AM,73.9,54.0,50,30.17,10.0,NW,12.7,18.4,N/A,,Scattered Clouds,320,2013-07-30 12:51:00
9:51 AM,75.9,55.0,48,30.17,10.0,Variable,6.9,-,N/A,,Clear,0,2013-07-30 13:51:00
10:51 AM,79.0,55.9,45,30.16,10.0,NW,6.9,-,N/A,,Clear,320,2013-07-30 14:51:00
11:51 AM,81.0,54.0,39,30.15,10.0,WNW,9.2,-,N/A,,Clear,300,2013-07-30 15:51:00
12:51 PM,82.0,54.0,38,30.14,10.0,NW,16.1,23.0,N/A,,Scattered Clouds,320,2013-07-30 16:51:00
1:51 PM,82.0,54.0,38,30.13,10.0,West,12.7,-,N/A,,Mostly Cloudy,280,2013-07-30 17:51:00
2:51 PM,81.0,55.0,41,30.12,10.0,NNW,12.7,-,N/A,,Mostly Cloudy,330,2013-07-30 18:51:00
3:51 PM,82.0,54.0,38,30.12,10.0,West,13.8,17.3,N/A,,Overcast,270,2013-07-30 19:51:00
4:51 PM,81.0,53.1,38,30.10,10.0,NW,10.4,-,N/A,,Scattered Clouds,320,2013-07-30 20:51:00
5:51 PM,80.1,53.1,39,30.11,10.0,NW,9.2,-,N/A,,Mostly Cloudy,310,2013-07-30 21:51:00
6:51 PM,80.1,53.1,39,30.12,10.0,WNW,10.4,-,N/A,,Mostly Cloudy,300,2013-07-30 22:51:00
7:51 PM,78.1,54.0,43,30.13,10.0,West,9.2,-,N/A,,Mostly Cloudy,280,2013-07-30 23:51:00
8:51 PM,75.9,55.9,50,30.12,10.0,West,6.9,-,N/A,,Scattered Clouds,280,2013-07-31 00:51:00
9:51 PM,75.0,57.0,53,30.13,10.0,West,4.6,-,N/A,,Scattered Clouds,280,2013-07-31 01:51:00
10:51 PM,73.0,57.9,59,30.14,10.0,WNW,6.9,-,N/A,,Partly Cloudy,290,2013-07-31 02:51:00
11:51 PM,73.0,57.9,59,30.14,10.0,NW,4.6,-,N/A,,Partly Cloudy,310,2013-07-31 03:51:00